When you browse on this site, cookies collect data to enhance your experience and personalize the content and advertising you see.
Visit our Privacy Policy to learn more. By continuing to use the site, you agree to this use of cookies and data.
  • In Portugal
  • List of Countries
  • For 7 days
  • Water Temperature
  • Satellite Maps
  • Weather Map
  • Weather Widgets
  • user-avatar
    Login

    Hourly Weather Pirogi

    Today, 21 April, Sunday

    Time Temperature Precipitation Wind Pressure Humidity
    00:00 +5°C° 0 mm 2 mps 751 mmHg 84%
    01:00 +5°C° 0 mm 2 mps 751 mmHg 86%
    02:00 +4°C° 0 mm 2 mps 751 mmHg 90%
    03:00 +4°C° 0 mm 2 mps 751 mmHg 91%
    04:00 +3°C° 0 mm 3 mps 751 mmHg 92%
    05:00 +2°C° 0 mm 3 mps 751 mmHg 93%
    06:00 +4°C° 0 mm 3 mps 751 mmHg 88%
    07:00 +5°C° 0 mm 4 mps 751 mmHg 82%
    08:00 +7°C° 0 mm 4 mps 751 mmHg 76%
    09:00 +10°C° 0 mm 4 mps 752 mmHg 68%
    10:00 +11°C° 0 mm 4 mps 752 mmHg 61%
    11:00 +13°C° 0 mm 4 mps 752 mmHg 54%
    12:00 +14°C° 0.2 mm 4 mps 752 mmHg 50%
    13:00 +15°C° 0.2 mm 4 mps 752 mmHg 46%
    14:00 +17°C° 0 mm 4 mps 752 mmHg 40%
    15:00 +15°C° 0 mm 4 mps 752 mmHg 43%
    16:00 +16°C° 0 mm 3 mps 752 mmHg 47%
    17:00 +14°C° 0 mm 3 mps 752 mmHg 50%
    18:00 +13°C° 0 mm 3 mps 752 mmHg 54%
    19:00 +11°C° 0 mm 3 mps 753 mmHg 59%
    20:00 +10°C° 0 mm 2 mps 753 mmHg 63%
    21:00 +9°C° 0 mm 2 mps 753 mmHg 65%
    22:00 +9°C° 0 mm 2 mps 754 mmHg 68%
    23:00 +8°C° 0 mm 2 mps 754 mmHg 70%

    Tomorrow, 22 April, Monday

    Time Temperature Precipitation Wind Pressure Humidity
    00:00 +7°C° 0 mm 2 mps 754 mmHg 71%
    01:00 +7°C° 0 mm 2 mps 755 mmHg 73%
    02:00 +7°C° 0 mm 2 mps 755 mmHg 74%
    03:00 +7°C° 0 mm 1 mps 755 mmHg 75%
    04:00 +7°C° 0 mm 1 mps 755 mmHg 75%
    05:00 +7°C° 0 mm 1 mps 756 mmHg 76%
    06:00 +9°C° 0 mm 1 mps 756 mmHg 69%
    07:00 +11°C° 0 mm 1 mps 756 mmHg 62%
    08:00 +13°C° 0 mm 1 mps 756 mmHg 55%
    09:00 +14°C° 0 mm 1 mps 757 mmHg 47%
    10:00 +15°C° 0 mm 2 mps 757 mmHg 40%
    11:00 +17°C° 0 mm 2 mps 757 mmHg 32%
    12:00 +17°C° 0 mm 2 mps 757 mmHg 33%
    13:00 +16°C° 0 mm 2 mps 757 mmHg 35%
    14:00 +16°C° 0 mm 2 mps 757 mmHg 36%
    15:00 +16°C° 0 mm 1 mps 757 mmHg 37%
    16:00 +16°C° 0 mm 1 mps 757 mmHg 39%
    17:00 +16°C° 0 mm 1 mps 757 mmHg 40%
    18:00 +15°C° 0 mm 1 mps 757 mmHg 43%
    19:00 +14°C° 0 mm 1 mps 757 mmHg 45%
    20:00 +11°C° 0 mm 0 mps 757 mmHg 47%
    21:00 +11°C° 0 mm 0 mps 757 mmHg 50%
    22:00 +10°C° 0 mm 0 mps 757 mmHg 52%
    23:00 +9°C° 0 mm 0 mps 757 mmHg 54%

    Day after tomorrow, 23 April, Tuesday

    Time Temperature Precipitation Wind Pressure Humidity
    00:00 +8°C° 0 mm 0 mps 758 mmHg 55%
    01:00 +8°C° 0 mm 0 mps 758 mmHg 57%
    02:00 +8°C° 0 mm 1 mps 758 mmHg 59%
    03:00 +8°C° 0 mm 1 mps 758 mmHg 60%
    04:00 +8°C° 0 mm 1 mps 758 mmHg 61%
    05:00 +8°C° 0 mm 1 mps 758 mmHg 62%
    06:00 +10°C° 0 mm 1 mps 759 mmHg 59%
    07:00 +12°C° 0 mm 1 mps 759 mmHg 56%
    08:00 +13°C° 0 mm 1 mps 759 mmHg 53%
    09:00 +15°C° 0 mm 2 mps 759 mmHg 48%
    10:00 +16°C° 0 mm 2 mps 759 mmHg 44%
    11:00 +18°C° 0 mm 2 mps 759 mmHg 39%
    12:00 +18°C° 0 mm 2 mps 759 mmHg 38%
    13:00 +19°C° 0 mm 1 mps 758 mmHg 37%
    14:00 +19°C° 0 mm 1 mps 758 mmHg 36%
    15:00 +19°C° 0 mm 1 mps 758 mmHg 38%
    16:00 +19°C° 0 mm 1 mps 758 mmHg 40%
    17:00 +18°C° 0 mm 1 mps 757 mmHg 41%
    18:00 +16°C° 0 mm 1 mps 757 mmHg 44%
    19:00 +14°C° 0 mm 1 mps 757 mmHg 48%
    20:00 +11°C° 0 mm 0 mps 757 mmHg 51%
    21:00 +11°C° 0 mm 0 mps 757 mmHg 52%
    22:00 +10°C° 0 mm 0 mps 758 mmHg 54%
    23:00 +11°C° 0 mm 1 mps 758 mmHg 55%

    24 April, Wednesday

    Time Temperature Precipitation Wind Pressure Humidity
    00:00 +9°C° 0 mm 0 mps 758 mmHg 56%
    01:00 +9°C° 0 mm 0 mps 758 mmHg 58%
    02:00 +8°C° 0 mm 0 mps 758 mmHg 59%
    03:00 +8°C° 0 mm 0 mps 758 mmHg 60%
    04:00 +8°C° 0 mm 0 mps 758 mmHg 61%
    05:00 +7°C° 0 mm 0 mps 758 mmHg 61%
    06:00 +9°C° 0 mm 0 mps 758 mmHg 57%
    07:00 +12°C° 0 mm 0 mps 759 mmHg 52%
    08:00 +14°C° 0 mm 0 mps 759 mmHg 48%
    09:00 +16°C° 0 mm 1 mps 759 mmHg 44%
    10:00 +18°C° 0 mm 1 mps 758 mmHg 40%
    11:00 +19°C° 0 mm 2 mps 758 mmHg 36%
    12:00 +19°C° 0 mm 2 mps 758 mmHg 35%
    13:00 +19°C° 0 mm 2 mps 758 mmHg 35%
    14:00 +20°C° 0 mm 2 mps 758 mmHg 34%
    15:00 +20°C° 0 mm 2 mps 757 mmHg 36%
    16:00 +19°C° 0 mm 2 mps 757 mmHg 38%
    17:00 +19°C° 0 mm 2 mps 757 mmHg 40%
    18:00 +17°C° 0 mm 2 mps 757 mmHg 45%
    19:00 +15°C° 0 mm 1 mps 757 mmHg 49%
    20:00 +14°C° 0 mm 1 mps 757 mmHg 54%
    21:00 +13°C° 0 mm 1 mps 757 mmHg 55%
    22:00 +12°C° 0 mm 1 mps 757 mmHg 57%
    23:00 +12°C° 0 mm 1 mps 757 mmHg 58%

    25 April, Thursday

    Time Temperature Precipitation Wind Pressure Humidity
    00:00 +11°C° 0 mm 1 mps 757 mmHg 59%
    01:00 +11°C° 0 mm 1 mps 757 mmHg 61%
    02:00 +10°C° 0 mm 1 mps 757 mmHg 62%
    03:00 +10°C° 0 mm 1 mps 757 mmHg 63%
    04:00 +10°C° 0 mm 1 mps 757 mmHg 65%
    05:00 +9°C° 0 mm 1 mps 757 mmHg 67%
    06:00 +10°C° 0 mm 2 mps 758 mmHg 63%
    07:00 +13°C° 0 mm 2 mps 758 mmHg 59%
    08:00 +15°C° 0 mm 2 mps 758 mmHg 55%
    09:00 +16°C° 0 mm 3 mps 757 mmHg 51%
    10:00 +18°C° 0 mm 3 mps 757 mmHg 46%
    11:00 +19°C° 0 mm 4 mps 757 mmHg 42%
    12:00 +19°C° 0 mm 4 mps 757 mmHg 41%
    13:00 +20°C° 0 mm 4 mps 756 mmHg 40%
    14:00 +20°C° 0 mm 4 mps 756 mmHg 39%
    15:00 +20°C° 0 mm 4 mps 756 mmHg 41%
    16:00 +20°C° 0 mm 3 mps 755 mmHg 43%
    17:00 +20°C° 0 mm 3 mps 755 mmHg 46%
    18:00 +18°C° 0 mm 3 mps 755 mmHg 51%
    19:00 +16°C° 0 mm 3 mps 754 mmHg 56%
    20:00 +14°C° 0 mm 2 mps 754 mmHg 61%
    21:00 +14°C° 0 mm 2 mps 754 mmHg 63%
    22:00 +12°C° 0 mm 3 mps 754 mmHg 65%
    23:00 +11°C° 0 mm 3 mps 754 mmHg 66%

    26 April, Friday

    Time Temperature Precipitation Wind Pressure Humidity
    00:00 +11°C° 0 mm 3 mps 754 mmHg 67%
    01:00 +10°C° 0 mm 3 mps 754 mmHg 68%
    02:00 +10°C° 0 mm 3 mps 753 mmHg 69%
    03:00 +10°C° 0 mm 3 mps 753 mmHg 71%
    04:00 +9°C° 0 mm 3 mps 753 mmHg 72%
    05:00 +9°C° 0 mm 3 mps 753 mmHg 73%
    06:00 +11°C° 0 mm 3 mps 752 mmHg 69%
    07:00 +13°C° 0 mm 4 mps 752 mmHg 64%
    08:00 +14°C° 0 mm 4 mps 752 mmHg 60%
    09:00 +16°C° 0 mm 5 mps 752 mmHg 55%
    10:00 +17°C° 0 mm 6 mps 751 mmHg 50%
    11:00 +20°C° 0 mm 6 mps 751 mmHg 45%
    12:00 +21°C° 0 mm 6 mps 750 mmHg 43%
    13:00 +21°C° 0 mm 6 mps 750 mmHg 42%
    14:00 +22°C° 0 mm 6 mps 749 mmHg 41%
    15:00 +21°C° 0 mm 5 mps 749 mmHg 43%
    16:00 +21°C° 0 mm 4 mps 749 mmHg 46%
    17:00 +21°C° 0 mm 4 mps 748 mmHg 48%
    18:00 +19°C° 0 mm 3 mps 748 mmHg 52%
    19:00 +17°C° 0 mm 3 mps 748 mmHg 57%
    20:00 +14°C° 0 mm 3 mps 748 mmHg 61%
    21:00 +14°C° 0 mm 3 mps 748 mmHg 61%
    22:00 +14°C° 0 mm 2 mps 748 mmHg 60%
    23:00 +13°C° 0 mm 2 mps 748 mmHg 60%
    Show more